Location: Az?znagar
(16.8373°N, 80.5091°E)
Time: 10:37:42
(UTC+00:00)

Cosmos 1777 Rocket - Pass Details

Date: 04 December 2021
Orbit: 757 x 776 km, 74.0° (Epoch: 16 January)

Event Time Altitude Azimuth Distance (km) Brightness Sun altitude
Rises 00:03:04 0° 193° (SSW) 3,199 7.3 -11.9°
Reaches altitude 10° 00:05:25 10° 193° (SSW) 2,276 6.5 -11.4°
Maximum altitude 00:10:35 90° 201° (SSW) 761 4.0 -10.2°
Drops below altitude 10° 00:15:47 10° 13° (NNE) 2,287 6.4 -9.0°
Sets 00:18:09 0° 14° (NNE) 3,216 7.2 -8.5°
